"startDT [UTC]","vpos","CH4 [ppm]","stdev(CH4) [ppm]","CO2 [ppm]","stdev(CO2) [ppm]","H2O_reported [%]","stdev(H2O_reported)","CavityPressure [torr]","CavityTemp [C]","OutletValve","CH4_dry [ppm]","CO2_dry [ppm]","DasTemp [C]","EtalonTemp [C]","WarmBoxTemp [C]","MPVPosition","T_ECpre [C]","T_EC1 [C]","T_EC2 [C]","p_inlet [hPa]","p_in [hPa]","p_out [hPa]","T_inlet [C]","RH_inlet [%]","dwpt_inlet [C]","T_vent [C]","RH_vent [%]","dwpt_vent [C]","flow_vent [l min-1]","flow_inlet [l min-1]","dwpt_sample [C]","T_room [C]"
2015-03-26 00:00:00,3.0,1.88300,0.01874,399.468,2.460,0.0400,0.0577,139.914,45.000,30710.20592,1.88623,399.838,34.377,45.068,45.000,0.00,0.09,-272.72,-272.78,10,502,-3,21.1,5.0,-20.1,21.3,5.4,-18.9,5.73,1.53,-10.8,27.6
2015-03-26 00:01:00,3.0,1.87738,0.00040,397.187,0.047,0.0096,0.0018,139.999,45.000,30681.03666,1.87754,397.236,34.369,45.067,45.000,0.00,0.09,-272.71,-272.77,10,502,-3,21.1,5.0,-20.0,21.2,5.4,-19.0,5.73,1.63,-10.8,27.6
2015-03-26 00:02:00,3.0,1.87745,0.00038,397.252,0.101,0.0096,0.0023,140.000,45.000,30670.44773,1.87764,397.294,34.332,45.067,45.000,0.00,0.09,-272.71,-272.77,11,503,-3,21.1,5.0,-19.9,21.3,5.3,-19.2,5.73,1.62,-10.7,27.6
2015-03-26 00:03:00,3.0,1.87711,0.00031,397.542,0.059,0.0093,0.0022,140.000,45.000,30662.61078,1.87731,397.582,34.345,45.067,45.000,0.00,0.09,-272.72,-272.78,11,503,-3,21.2,5.0,-19.9,21.3,5.3,-19.3,5.73,1.58,-10.6,27.6
2015-03-26 00:04:00,3.0,1.87675,0.00027,397.624,0.035,0.0083,0.0021,140.000,45.000,30660.55638,1.87690,397.664,34.368,45.067,45.000,0.00,0.09,-272.72,-272.77,11,504,-3,21.2,5.0,-20.0,21.3,5.2,-19.5,5.73,1.54,-10.6,27.5
2015-03-26 00:05:00,3.0,1.87694,0.00034,397.633,0.032,0.0065,0.0016,140.001,45.000,30655.03389,1.87707,397.663,34.362,45.067,45.000,0.00,0.09,-272.71,-272.77,10,505,-3,21.2,5.0,-20.0,21.3,5.1,-19.6,5.73,1.52,-10.5,27.6
2015-03-26 00:06:00,3.0,1.87715,0.00037,397.647,0.039,0.0045,0.0023,140.001,45.000,30652.87849,1.87720,397.668,34.356,45.067,45.000,0.00,0.09,-272.72,-272.77,10,505,-3,21.2,4.9,-20.1,21.3,5.1,-19.7,5.73,1.52,-10.4,27.6
2015-03-26 00:07:00,3.0,1.87725,0.00039,397.652,0.031,0.0037,0.0022,140.001,45.000,30650.94103,1.87735,397.670,34.343,45.067,45.000,0.00,0.09,-272.72,-272.77,10,506,-3,21.2,4.9,-20.1,21.3,5.0,-19.7,5.73,1.56,-10.4,27.6
2015-03-26 00:08:00,3.0,1.87705,0.00033,397.635,0.034,0.0024,0.0018,139.998,45.000,30651.16031,1.87711,397.647,34.359,45.067,45.000,0.00,0.09,-272.72,-272.77,10,507,-3,21.3,4.9,-20.1,21.4,5.0,-19.7,5.73,1.60,-10.3,27.6
2015-03-26 00:09:00,3.0,1.87716,0.00030,397.659,0.035,0.0031,0.0026,139.999,45.000,30648.39262,1.87722,397.674,34.354,45.067,45.000,0.00,0.09,-272.72,-272.77,10,507,-3,21.3,4.9,-20.1,21.4,5.0,-19.8,5.73,1.64,-10.3,27.6
2015-03-26 00:10:00,3.0,1.87720,0.00025,397.677,0.027,0.0024,0.0018,140.001,45.000,30646.96322,1.87721,397.687,34.321,45.067,45.000,0.00,0.09,-272.71,-272.77,10,507,-3,21.3,4.9,-20.0,21.4,5.0,-19.8,5.73,1.62,-10.3,27.6
2015-03-26 00:11:00,3.0,1.87684,0.00050,397.665,0.024,0.0023,0.0015,139.998,45.000,30648.17851,1.87689,397.677,34.309,45.067,45.000,0.00,0.09,-272.71,-272.77,10,508,-3,21.3,4.9,-20.1,21.4,5.0,-19.8,5.73,1.59,-10.2,27.6
2015-03-26 00:12:00,3.0,1.87691,0.00039,397.654,0.030,0.0017,0.0017,139.997,45.000,30647.35123,1.87694,397.662,34.301,45.067,45.000,0.00,0.09,-272.71,-272.76,11,508,-3,21.4,4.9,-20.1,21.4,5.0,-19.8,5.73,1.54,-10.2,27.6
2015-03-26 00:13:00,3.0,1.87716,0.00029,397.657,0.034,0.0016,0.0020,140.001,45.000,30648.48002,1.87719,397.665,34.268,45.068,45.000,0.00,0.09,-272.72,-272.78,10,508,-3,21.4,4.9,-20.1,21.4,5.0,-19.8,5.73,1.52,-10.1,27.6
2015-03-26 00:14:00,3.0,1.87711,0.00031,397.656,0.024,0.0021,0.0016,140.002,45.000,30647.92124,1.87717,397.666,34.251,45.067,45.000,0.00,0.09,-272.71,-272.77,10,508,-3,21.4,4.9,-20.1,21.5,5.0,-19.8,5.73,1.53,-10.1,27.7
2015-03-26 00:15:00,3.0,1.87704,0.00032,397.654,0.031,0.0021,0.0025,140.002,45.000,30648.26844,1.87706,397.663,34.250,45.068,45.000,0.00,0.09,-272.71,-272.76,10,508,-3,21.4,4.8,-20.2,21.5,5.0,-19.8,5.73,1.55,-10.0,27.6
2015-03-26 00:16:00,3.0,1.87677,0.00031,397.659,0.028,0.0014,0.0025,140.000,45.000,30649.25430,1.87681,397.666,34.223,45.068,45.000,0.00,0.09,-272.72,-272.78,11,509,-3,21.4,4.8,-20.2,21.5,5.0,-19.8,5.73,1.58,-10.0,27.7
2015-03-26 00:17:00,3.0,1.87717,0.00027,397.680,0.030,0.0005,0.0015,140.002,45.000,30648.26221,1.87717,397.683,34.188,45.068,45.000,0.00,0.09,-272.72,-272.77,10,509,-3,21.5,4.8,-20.2,21.5,4.9,-19.8,5.73,1.61,-10.0,27.7
2015-03-26 00:18:00,3.0,1.87715,0.00023,397.678,0.023,0.0015,0.0021,140.002,45.000,30648.10449,1.87717,397.685,34.184,45.068,45.000,0.00,0.09,-272.71,-272.77,10,509,-3,21.5,4.8,-20.2,21.5,4.9,-19.9,5.73,1.62,-10.0,27.7
2015-03-26 00:19:00,3.0,1.87712,0.00032,397.693,0.031,0.0013,0.0016,139.999,45.000,30648.61334,1.87715,397.700,34.161,45.068,45.000,0.00,0.09,-272.72,-272.77,11,509,-3,21.5,4.8,-20.2,21.6,4.9,-19.9,5.73,1.61,-9.9,27.7
2015-03-26 00:20:00,0.0,1.93173,0.01803,403.760,2.192,0.1365,0.0554,140.091,45.000,31611.37364,1.93179,404.251,34.133,45.068,45.000,0.00,0.09,-272.72,-272.77,5,653,-3,21.6,4.7,-20.4,21.6,4.9,-19.9,5.73,1.71,-9.9,27.7
2015-03-26 00:21:00,0.0,1.93777,0.00026,405.282,0.035,0.1617,0.0019,140.003,45.000,31632.67846,1.94089,406.072,34.127,45.068,45.000,0.00,0.09,-272.71,-272.77,5,652,-3,21.6,4.7,-20.4,21.6,4.9,-19.9,5.73,1.67,-9.9,27.7
2015-03-26 00:22:00,0.0,1.93775,0.00035,405.300,0.036,0.1615,0.0015,140.001,45.000,31651.17598,1.94084,406.090,34.125,45.068,45.000,0.00,0.09,-272.71,-272.76,5,652,-3,21.6,4.6,-20.6,21.6,5.0,-19.8,5.73,1.68,-9.8,27.7
2015-03-26 00:23:00,0.0,1.93761,0.00038,405.262,0.034,0.1598,0.0015,140.001,45.000,31668.28675,1.94069,406.044,34.123,45.068,45.000,0.00,0.09,-272.72,-272.77,6,653,-3,21.6,4.6,-20.6,21.6,4.9,-19.8,5.73,1.72,-9.8,27.7
2015-03-26 00:24:00,0.0,1.93763,0.00038,405.268,0.026,0.1601,0.0019,140.000,45.000,31678.07129,1.94068,406.052,34.092,45.067,45.000,0.00,0.09,-272.72,-272.77,5,653,-3,21.6,4.6,-20.7,21.7,5.0,-19.7,5.73,1.77,-9.8,27.7
2015-03-26 00:25:00,0.0,1.93779,0.00034,405.283,0.029,0.1604,0.0013,140.003,45.000,31689.03932,1.94086,406.068,34.063,45.067,45.000,0.00,0.09,-272.70,-272.77,5,653,-3,21.6,4.6,-20.6,21.7,5.0,-19.7,5.73,1.80,-9.8,27.7
2015-03-26 00:26:00,0.0,1.93775,0.00029,405.274,0.029,0.1610,0.0016,140.002,45.000,31698.86682,1.94081,406.061,34.063,45.067,45.000,0.00,0.09,-272.71,-272.77,5,653,-3,21.6,4.6,-20.6,21.7,5.0,-19.6,5.73,1.77,-9.8,27.8
2015-03-26 00:27:00,0.0,1.93761,0.00037,405.297,0.023,0.1616,0.0017,139.998,45.000,31700.50294,1.94072,406.087,34.064,45.067,45.000,0.00,0.09,-272.72,-272.77,5,653,-3,21.6,4.6,-20.6,21.7,5.0,-19.6,5.73,1.71,-9.8,27.7
2015-03-26 00:28:00,0.0,1.93781,0.00034,405.298,0.044,0.1591,0.0014,139.998,45.000,31712.46395,1.94086,406.077,34.072,45.067,45.000,0.00,0.09,-272.70,-272.77,6,654,-3,21.6,4.6,-20.7,21.7,5.0,-19.5,5.73,1.66,-9.7,27.7
2015-03-26 00:29:00,0.0,1.93767,0.00038,405.297,0.026,0.1585,0.0018,139.999,45.000,31719.44177,1.94071,406.071,34.076,45.067,45.000,0.00,0.09,-272.71,-272.77,5,654,-3,21.6,4.5,-20.8,21.6,5.0,-19.6,5.73,1.67,-9.7,27.7
2015-03-26 00:30:00,0.0,1.93772,0.00024,405.322,0.034,0.1583,0.0015,139.997,45.000,31720.23839,1.94074,406.096,34.063,45.067,45.000,0.00,0.09,-272.71,-272.77,5,654,-3,21.6,4.5,-20.8,21.6,5.0,-19.6,5.73,1.73,-9.7,27.7
2015-03-26 00:31:00,0.0,1.93759,0.00034,405.327,0.037,0.1573,0.0018,140.000,45.000,31730.63747,1.94064,406.096,34.064,45.067,45.000,0.00,0.09,-272.71,-272.77,5,654,-3,21.6,4.5,-20.9,21.6,5.1,-19.5,5.73,1.80,-9.7,27.7
2015-03-26 00:32:00,0.0,1.93790,0.00035,405.340,0.024,0.1573,0.0020,139.999,45.000,31726.97986,1.94088,406.109,34.064,45.067,44.999,0.00,0.09,-272.71,-272.77,6,654,-3,21.6,4.5,-20.9,21.6,5.1,-19.5,5.73,1.79,-9.7,27.7
2015-03-26 00:33:00,0.0,1.93798,0.00037,405.334,0.029,0.1568,0.0015,139.999,45.000,31739.00284,1.94096,406.101,34.044,45.067,45.000,0.00,0.09,-272.72,-272.77,6,654,-3,21.5,4.5,-20.9,21.6,5.1,-19.5,5.73,1.73,-9.7,27.7
2015-03-26 00:34:00,0.0,1.93808,0.00029,405.336,0.025,0.1558,0.0017,139.998,45.000,31736.52170,1.94107,406.099,34.005,45.067,45.000,0.00,0.09,-272.72,-272.77,5,654,-3,21.5,4.5,-20.9,21.6,5.0,-19.6,5.73,1.66,-9.6,27.7
2015-03-26 00:35:00,0.0,1.93806,0.00031,405.323,0.032,0.1565,0.0015,140.002,45.000,31734.56736,1.94104,406.089,34.000,45.067,45.000,0.00,0.09,-272.71,-272.77,5,654,-3,21.5,4.5,-20.9,21.6,5.1,-19.5,5.73,1.66,-9.6,27.7
2015-03-26 00:36:00,0.0,1.93813,0.00044,405.344,0.032,0.1574,0.0016,139.997,45.000,31731.44085,1.94115,406.112,33.986,45.067,45.000,0.00,0.09,-272.71,-272.77,5,654,-3,21.5,4.5,-21.0,21.6,5.1,-19.5,5.73,1.74,-9.6,27.7
2015-03-26 00:37:00,0.0,1.93805,0.00048,405.368,0.032,0.1556,0.0017,140.001,45.000,31735.77877,1.94105,406.130,33.943,45.068,45.000,0.00,0.09,-272.71,-272.77,6,654,-3,21.5,4.5,-21.0,21.6,5.1,-19.5,5.73,1.81,-9.6,27.7
2015-03-26 00:38:00,0.0,1.93794,0.00029,405.330,0.032,0.1560,0.0019,140.000,45.000,31741.77351,1.94092,406.093,33.937,45.068,45.000,0.00,0.09,-272.71,-272.76,5,654,-3,21.5,4.5,-21.0,21.6,5.1,-19.5,5.73,1.80,-9.6,27.7
2015-03-26 00:39:00,0.0,1.93791,0.00036,405.345,0.047,0.1556,0.0016,140.000,45.000,31740.26069,1.94086,406.104,33.938,45.068,45.000,0.00,0.09,-272.71,-272.77,5,654,-3,21.5,4.5,-21.0,21.6,5.1,-19.6,5.73,1.71,-9.5,27.7
2015-03-26 00:40:00,0.0,1.93828,0.00027,405.343,0.032,0.1557,0.0014,140.001,45.000,31746.01905,1.94127,406.105,33.931,45.068,45.000,0.00,0.09,-272.72,-272.78,6,655,-3,21.4,4.5,-21.1,21.5,5.1,-19.6,5.73,1.65,-9.5,27.7
2015-03-26 00:41:00,0.0,1.93829,0.00032,405.326,0.029,0.1552,0.0016,140.001,45.000,31745.19391,1.94125,406.086,33.888,45.068,45.000,0.00,0.09,-272.71,-272.77,6,654,-3,21.4,4.5,-21.0,21.5,5.0,-19.7,5.73,1.68,-9.5,27.7
2015-03-26 00:42:00,0.0,1.93821,0.00033,405.366,0.027,0.1559,0.0013,139.999,45.000,31749.89998,1.94120,406.128,33.875,45.068,45.000,0.00,0.09,-272.71,-272.77,6,655,-3,21.4,4.5,-21.1,21.5,5.0,-19.7,5.73,1.78,-9.5,27.7
2015-03-26 00:43:00,0.0,1.93816,0.00047,405.375,0.031,0.1545,0.0016,139.999,45.000,31744.49576,1.94111,406.131,33.875,45.067,45.000,0.00,0.09,-272.72,-272.77,5,654,-3,21.4,4.5,-21.1,21.5,5.0,-19.7,5.73,1.82,-9.5,27.7
2015-03-26 00:44:00,0.0,1.93808,0.00038,405.353,0.035,0.1564,0.0015,139.998,45.000,31749.82827,1.94110,406.118,33.875,45.067,45.000,0.00,0.09,-272.72,-272.77,6,655,-3,21.3,4.5,-21.0,21.5,5.0,-19.7,5.73,1.76,-9.5,27.7
2015-03-26 00:45:00,0.0,1.93831,0.00034,405.366,0.031,0.1552,0.0014,140.002,45.000,31749.62922,1.94125,406.124,33.866,45.067,45.000,0.00,0.09,-272.71,-272.77,6,655,-3,21.3,4.5,-21.1,21.4,5.0,-19.7,5.73,1.65,-9.4,27.7
2015-03-26 00:46:00,0.0,1.93819,0.00032,405.372,0.037,0.1554,0.0021,140.001,45.000,31751.41359,1.94116,406.132,33.855,45.067,45.000,0.00,0.09,-272.71,-272.77,6,655,-3,21.3,4.5,-21.1,21.5,5.0,-19.7,5.73,1.66,-9.4,27.6
2015-03-26 00:47:00,0.0,1.93820,0.00032,405.377,0.023,0.1555,0.0018,140.000,45.000,31751.40489,1.94121,406.137,33.843,45.067,45.000,0.00,0.09,-272.72,-272.78,5,655,-3,21.3,4.5,-21.1,21.5,5.0,-19.7,5.73,1.76,-9.4,27.6
2015-03-26 00:48:00,0.0,1.93807,0.00037,405.362,0.027,0.1555,0.0015,139.999,45.000,31755.25896,1.94102,406.125,33.855,45.067,45.000,0.00,0.09,-272.71,-272.77,6,655,-3,21.3,4.5,-21.1,21.4,5.0,-19.7,5.73,1.83,-9.4,27.6
2015-03-26 00:49:00,0.0,1.93789,0.00029,405.359,0.037,0.1556,0.0022,140.002,45.000,31756.28554,1.94089,406.118,33.869,45.067,45.000,0.00,0.09,-272.71,-272.76,6,655,-3,21.3,4.5,-21.1,21.4,5.0,-19.7,5.73,1.77,-9.4,27.6
2015-03-26 00:50:00,0.0,1.93789,0.00034,405.358,0.029,0.1547,0.0016,140.001,45.000,31755.04610,1.94083,406.115,33.873,45.067,44.999,0.00,0.09,-272.72,-272.77,6,655,-3,21.2,4.5,-21.1,21.4,5.0,-19.7,5.73,1.66,-9.4,27.6
2015-03-26 00:51:00,0.0,1.93795,0.00043,405.348,0.037,0.1555,0.0015,140.002,45.000,31756.34070,1.94095,406.108,33.873,45.067,44.999,0.00,0.09,-272.71,-272.77,5,655,-3,21.2,4.5,-21.1,21.4,5.0,-19.8,5.73,1.66,-9.4,27.6
2015-03-26 00:52:00,0.0,1.93819,0.00031,405.375,0.044,0.1556,0.0020,140.001,45.000,31757.32786,1.94113,406.137,33.865,45.067,44.999,0.00,0.09,-272.70,-272.77,6,655,-3,21.2,4.5,-21.1,21.4,5.0,-19.8,5.73,1.76,-9.4,27.6
2015-03-26 00:53:00,0.0,1.93794,0.00038,405.356,0.027,0.1547,0.0016,140.001,45.000,31756.62536,1.94093,406.111,33.821,45.067,45.000,0.00,0.09,-272.72,-272.77,6,655,-3,21.2,4.5,-21.1,21.4,5.0,-19.8,5.73,1.83,-9.4,27.6
2015-03-26 00:54:00,0.0,1.93798,0.00028,405.351,0.036,0.1557,0.0019,139.997,45.000,31756.16268,1.94097,406.115,33.813,45.067,45.000,0.00,0.09,-272.72,-272.77,6,655,-3,21.2,4.5,-21.1,21.4,5.0,-19.8,5.73,1.77,-9.4,27.6
2015-03-26 00:55:00,0.0,1.93791,0.00027,405.347,0.030,0.1553,0.0018,140.000,45.000,31756.43771,1.94086,406.105,33.809,45.067,45.000,0.00,0.09,-272.70,-272.76,5,655,-3,21.1,4.5,-21.1,21.3,5.0,-19.9,5.73,1.65,-9.4,27.6
2015-03-26 00:56:00,0.0,1.93803,0.00031,405.337,0.032,0.1554,0.0014,140.000,45.000,31755.97155,1.94100,406.098,33.800,45.067,45.000,0.00,0.09,-272.71,-272.77,6,655,-3,21.1,4.6,-21.1,21.3,5.0,-19.9,5.73,1.65,-9.3,27.6
2015-03-26 00:57:00,0.0,1.93803,0.00034,405.362,0.031,0.1546,0.0016,139.997,45.000,31755.09761,1.94099,406.118,33.786,45.067,45.000,0.00,0.09,-272.72,-272.78,6,655,-3,21.1,4.6,-21.1,21.3,5.0,-19.9,5.73,1.78,-9.3,27.5
2015-03-26 00:58:00,0.0,1.93812,0.00031,405.364,0.035,0.1558,0.0021,140.000,45.000,31755.86157,1.94111,406.127,33.758,45.067,45.000,0.00,0.09,-272.71,-272.77,5,655,-3,21.0,4.6,-21.1,21.2,5.0,-19.9,5.73,1.83,-9.3,27.5
2015-03-26 00:59:00,0.0,1.93822,0.00030,405.363,0.022,0.1556,0.0018,139.997,45.000,31754.57971,1.94119,406.124,33.764,45.068,45.000,0.00,0.09,-272.71,-272.77,5,655,-3,21.0,4.6,-21.1,21.2,5.0,-19.9,5.73,1.75,-9.3,27.5
2015-03-26 01:00:00,0.0,1.93818,0.00031,405.377,0.024,0.1552,0.0017,139.997,45.000,31756.63778,1.94114,406.135,33.763,45.068,45.000,0.00,0.09,-272.72,-272.77,6,655,-3,21.0,4.6,-21.1,21.2,5.0,-19.9,5.73,1.65,-9.3,27.5
2015-03-26 01:01:00,0.0,1.93816,0.00036,405.380,0.045,0.1550,0.0014,140.000,45.000,31760.58790,1.94111,406.138,33.752,45.068,45.000,0.00,0.09,-272.72,-272.77,6,656,-3,21.0,4.6,-21.1,21.2,5.0,-19.9,5.73,1.68,-9.3,27.5
2015-03-26 01:02:00,0.0,1.93820,0.00039,405.374,0.030,0.1558,0.0018,139.999,45.000,31755.40156,1.94122,406.137,33.750,45.067,45.000,0.00,0.09,-272.71,-272.77,6,656,-3,20.9,4.6,-21.1,21.2,5.0,-20.0,5.73,1.80,-9.3,27.5
2015-03-26 01:03:00,0.0,1.93802,0.00031,405.353,0.025,0.1564,0.0021,140.001,45.000,31760.61754,1.94100,406.117,33.746,45.067,45.000,0.00,0.09,-272.71,-272.77,6,656,-3,20.9,4.6,-21.0,21.2,5.0,-20.0,5.73,1.83,-9.3,27.4
2015-03-26 01:04:00,0.0,1.93800,0.00032,405.333,0.024,0.1561,0.0017,140.002,45.000,31760.58488,1.94099,406.097,33.710,45.067,45.000,0.00,0.09,-272.72,-272.77,7,656,-3,20.9,4.6,-21.0,21.1,5.0,-20.0,5.73,1.72,-9.3,27.4
2015-03-26 01:05:00,0.0,1.93801,0.00047,405.322,0.033,0.1570,0.0018,140.000,45.000,31760.64993,1.94103,406.090,33.691,45.067,45.000,0.00,0.09,-272.71,-272.77,6,656,-3,20.9,4.6,-21.0,21.1,5.0,-20.0,5.73,1.64,-9.3,27.4
2015-03-26 01:06:00,0.0,1.93798,0.00036,405.337,0.026,0.1566,0.0013,140.001,45.000,31757.65094,1.94095,406.102,33.689,45.067,45.000,0.00,0.09,-272.71,-272.77,6,656,-3,20.9,4.7,-20.9,21.1,5.0,-20.0,5.73,1.71,-9.4,27.4
2015-03-26 01:07:00,0.0,1.93798,0.00033,405.348,0.027,0.1568,0.0018,139.998,45.000,31756.61221,1.94100,406.114,33.687,45.067,45.000,0.00,0.09,-272.71,-272.78,6,656,-3,20.9,4.7,-21.0,21.1,5.0,-19.9,5.73,1.83,-9.4,27.4
2015-03-26 01:08:00,0.0,1.93775,0.00030,405.351,0.034,0.1565,0.0017,139.998,45.000,31759.65779,1.94073,406.117,33.665,45.067,45.000,0.00,0.09,-272.71,-272.77,7,656,-3,20.8,4.7,-21.0,21.1,5.0,-19.9,5.73,1.82,-9.3,27.4
2015-03-26 01:09:00,0.0,1.93785,0.00042,405.363,0.032,0.1567,0.0017,140.000,45.000,31760.07120,1.94087,406.130,33.677,45.067,45.000,0.00,0.09,-272.71,-272.77,6,656,-3,20.8,4.7,-20.9,21.1,5.0,-20.0,5.73,1.69,-9.4,27.4
2015-03-26 01:10:00,0.0,1.93768,0.00048,405.316,0.030,0.1573,0.0019,140.001,45.000,31765.45162,1.94064,406.083,33.686,45.068,45.000,0.00,0.09,-272.71,-272.78,6,656,-3,20.8,4.7,-21.0,21.0,5.0,-20.0,5.73,1.64,-9.4,27.4
2015-03-26 01:11:00,0.0,1.93776,0.00027,405.330,0.036,0.1565,0.0015,139.999,45.000,31767.70008,1.94080,406.098,33.688,45.067,45.000,0.00,0.09,-272.72,-272.77,7,656,-3,20.8,4.7,-21.0,21.0,5.0,-20.0,5.73,1.75,-9.4,27.3
2015-03-26 01:12:00,0.0,1.93784,0.00026,405.342,0.033,0.1566,0.0016,140.000,45.000,31764.94006,1.94083,406.106,33.684,45.067,45.000,0.00,0.09,-272.72,-272.77,7,656,-3,20.8,4.7,-21.0,21.0,5.0,-20.0,5.73,1.84,-9.4,27.3
2015-03-26 01:13:00,0.0,1.93757,0.00031,405.325,0.043,0.1580,0.0015,140.000,45.000,31764.52101,1.94059,406.099,33.674,45.067,45.000,0.00,0.09,-272.72,-272.77,6,656,-3,20.7,4.7,-20.9,21.0,5.1,-20.0,5.73,1.77,-9.4,27.3
2015-03-26 01:14:00,0.0,1.93777,0.00034,405.340,0.030,0.1577,0.0016,139.998,45.000,31764.55832,1.94081,406.110,33.686,45.067,45.000,0.00,0.09,-272.72,-272.77,6,656,-3,20.7,4.8,-20.9,21.0,5.1,-19.9,5.73,1.65,-9.4,27.3
2015-03-26 01:15:00,0.0,1.93775,0.00035,405.315,0.036,0.1589,0.0014,139.996,45.000,31762.74047,1.94079,406.092,33.688,45.067,45.000,0.00,0.09,-272.71,-272.77,7,656,-3,20.7,4.8,-20.8,21.0,5.1,-20.0,5.73,1.68,-9.4,27.3
2015-03-26 01:16:00,0.0,1.93802,0.00033,405.318,0.037,0.1591,0.0010,139.995,45.000,31760.14070,1.94102,406.097,33.678,45.067,45.000,0.00,0.09,-272.71,-272.77,6,657,-3,20.7,4.7,-20.9,21.0,5.1,-20.0,5.73,1.81,-9.4,27.3
2015-03-26 01:17:00,0.0,1.93797,0.00049,405.304,0.031,0.1589,0.0016,139.997,45.000,31761.64026,1.94104,406.082,33.660,45.067,45.000,0.00,0.09,-272.72,-272.77,6,656,-3,20.7,4.8,-20.8,21.0,5.1,-19.9,5.73,1.83,-9.4,27.3
2015-03-26 01:18:00,0.0,1.93795,0.00038,405.302,0.035,0.1599,0.0013,140.000,45.000,31758.93261,1.94103,406.084,33.671,45.067,45.000,0.00,0.09,-272.72,-272.77,6,656,-3,20.7,4.8,-20.8,20.9,5.1,-20.0,5.73,1.70,-9.4,27.3
2015-03-26 01:19:00,0.0,1.93760,0.00024,405.290,0.030,0.1611,0.0026,140.000,45.000,31760.90188,1.94068,406.078,33.673,45.067,45.000,0.00,0.09,-272.70,-272.77,7,656,-3,20.7,4.8,-20.7,20.9,5.1,-20.0,5.73,1.64,-9.4,27.3
2015-03-26 01:20:00,0.0,1.93761,0.00042,405.249,0.029,0.1615,0.0017,139.999,45.000,31762.46747,1.94068,406.039,33.681,45.067,45.000,0.00,0.09,-272.71,-272.77,6,656,-3,20.7,4.9,-20.7,20.9,5.1,-20.0,5.73,1.74,-9.4,27.3
2015-03-26 01:21:00,0.0,1.93775,0.00044,405.281,0.037,0.1601,0.0017,140.000,45.000,31764.01317,1.94083,406.064,33.693,45.067,45.000,0.00,0.09,-272.72,-272.77,6,657,-3,20.7,4.8,-20.7,20.9,5.1,-20.0,5.73,1.85,-9.4,27.2
2015-03-26 01:22:00,0.0,1.93802,0.00038,405.334,0.026,0.1603,0.0023,140.002,45.000,31764.46033,1.94106,406.117,33.709,45.067,45.000,0.00,0.09,-272.71,-272.77,7,657,-2,20.6,4.8,-20.8,20.9,5.1,-19.9,5.73,1.78,-9.5,27.2
2015-03-26 01:23:00,0.0,1.93771,0.00023,405.318,0.031,0.1596,0.0019,140.000,45.000,31765.55926,1.94078,406.098,33.698,45.067,45.000,0.00,0.09,-272.71,-272.77,7,657,-2,20.7,4.8,-20.8,20.9,5.1,-19.9,5.73,1.65,-9.5,27.2
2015-03-26 01:24:00,0.0,1.93794,0.00041,405.301,0.036,0.1599,0.0022,140.002,45.000,31767.24375,1.94097,406.082,33.691,45.067,45.000,0.00,0.09,-272.71,-272.78,6,657,-3,20.6,4.8,-20.7,20.9,5.1,-19.9,5.73,1.67,-9.5,27.3
2015-03-26 01:25:00,0.0,1.93798,0.00020,405.305,0.032,0.1603,0.0012,139.999,45.000,31761.53296,1.94108,406.089,33.676,45.067,45.000,0.00,0.09,-272.71,-272.77,7,657,-2,20.6,4.8,-20.7,20.9,5.1,-20.0,5.73,1.81,-9.5,27.2
2015-03-26 01:26:00,0.0,1.93788,0.00030,405.332,0.042,0.1616,0.0017,140.003,45.000,31763.50251,1.94097,406.123,33.634,45.067,45.000,0.00,0.09,-272.72,-272.77,7,657,-2,20.6,4.9,-20.7,20.9,5.1,-20.0,5.73,1.83,-9.5,27.2
2015-03-26 01:27:00,0.0,1.93763,0.00028,405.277,0.024,0.1626,0.0023,139.999,45.000,31763.37893,1.94075,406.073,33.625,45.067,45.000,0.00,0.09,-272.72,-272.77,6,657,-2,20.6,4.9,-20.6,20.9,5.1,-20.0,5.73,1.70,-9.5,27.2
2015-03-26 01:28:00,0.0,1.93790,0.00034,405.318,0.046,0.1623,0.0021,140.003,45.000,31763.75388,1.94099,406.111,33.618,45.068,45.000,0.00,0.09,-272.72,-272.77,6,657,-2,20.6,4.9,-20.6,20.8,5.1,-19.9,5.73,1.64,-9.5,27.2
2015-03-26 01:29:00,0.0,1.93774,0.00039,405.322,0.031,0.1618,0.0017,140.000,45.000,31765.24374,1.94084,406.115,33.606,45.068,45.000,0.00,0.09,-272.71,-272.77,7,657,-2,20.6,4.9,-20.7,20.8,5.1,-19.9,5.73,1.76,-9.5,27.2
2015-03-26 01:30:00,0.0,1.93766,0.00024,405.296,0.038,0.1627,0.0015,140.000,45.000,31760.16834,1.94076,406.092,33.568,45.068,45.000,0.00,0.09,-272.72,-272.77,7,656,-3,20.6,4.9,-20.6,20.8,5.1,-19.9,5.73,1.85,-9.5,27.2
2015-03-26 01:31:00,0.0,1.93792,0.00038,405.321,0.033,0.1631,0.0018,140.001,45.000,31761.42617,1.94105,406.118,33.564,45.068,45.001,0.00,0.09,-272.71,-272.77,6,657,-2,20.6,4.9,-20.6,20.8,5.1,-19.9,5.73,1.77,-9.5,27.2
2015-03-26 01:32:00,0.0,1.93794,0.00037,405.334,0.029,0.1606,0.0018,140.002,45.000,31765.86140,1.94098,406.119,33.561,45.068,45.000,0.00,0.09,-272.71,-272.77,7,657,-2,20.6,4.9,-20.7,20.8,5.1,-20.0,5.73,1.64,-9.5,27.1
2015-03-26 01:33:00,0.0,1.93791,0.00041,405.335,0.033,0.1619,0.0017,140.000,45.000,31767.74654,1.94102,406.127,33.562,45.068,45.000,0.00,0.09,-272.71,-272.77,7,657,-3,20.5,4.9,-20.7,20.8,5.1,-19.9,5.73,1.69,-9.6,27.1
2015-03-26 01:34:00,0.0,1.93786,0.00028,405.324,0.029,0.1625,0.0019,139.999,45.000,31761.76217,1.94099,406.119,33.562,45.068,45.000,0.00,0.09,-272.72,-272.78,6,657,-2,20.5,4.9,-20.6,20.8,5.2,-19.9,5.73,1.83,-9.5,27.1
2015-03-26 01:35:00,0.0,1.93795,0.00037,405.335,0.023,0.1621,0.0021,139.998,45.000,31762.32938,1.94105,406.127,33.560,45.068,45.000,0.00,0.09,-272.71,-272.77,6,657,-2,20.5,4.9,-20.7,20.8,5.1,-19.9,5.73,1.83,-9.6,27.1
2015-03-26 01:36:00,0.0,1.93775,0.00033,405.320,0.036,0.1614,0.0021,140.001,45.000,31768.82392,1.94086,406.112,33.558,45.068,45.000,0.00,0.09,-272.71,-272.77,7,657,-2,20.5,4.9,-20.7,20.7,5.2,-19.9,5.73,1.68,-9.6,27.1
2015-03-26 01:37:00,0.0,1.93790,0.00028,405.326,0.035,0.1611,0.0011,140.001,45.000,31768.10724,1.94097,406.111,33.548,45.067,45.000,0.00,0.09,-272.72,-272.78,7,657,-2,20.5,4.9,-20.7,20.7,5.2,-19.9,5.73,1.65,-9.6,27.1
2015-03-26 01:38:00,0.0,1.93793,0.00036,405.324,0.028,0.1616,0.0018,139.997,45.000,31766.31889,1.94102,406.115,33.513,45.067,45.000,0.00,0.09,-272.72,-272.77,6,657,-2,20.5,4.9,-20.7,20.7,5.2,-19.9,5.73,1.78,-9.6,27.1
2015-03-26 01:39:00,0.0,1.93780,0.00035,405.323,0.033,0.1620,0.0011,140.000,45.000,31766.54135,1.94092,406.115,33.502,45.067,45.000,0.00,0.09,-272.71,-272.77,4,658,-3,20.4,4.9,-20.7,20.7,5.2,-19.9,5.73,1.85,-9.6,27.1
2015-03-26 01:40:00,0.0,1.93804,0.00037,405.336,0.038,0.1615,0.0020,139.999,45.000,31770.01807,1.94111,406.126,33.500,45.068,45.000,0.00,0.09,-272.72,-272.76,9,658,-1,20.4,4.9,-20.7,20.7,5.2,-19.9,5.73,1.73,-9.6,27.1
2015-03-26 01:41:00,0.0,1.93797,0.00038,405.316,0.020,0.1607,0.0012,140.000,45.000,31770.63202,1.94106,406.102,33.500,45.068,45.000,0.00,0.09,-272.73,-272.77,7,657,-2,20.4,4.9,-20.7,20.7,5.2,-19.8,5.73,1.63,-9.6,27.1
2015-03-26 01:42:00,0.0,1.93807,0.00040,405.334,0.038,0.1604,0.0021,139.996,45.000,31770.98201,1.94113,406.118,33.503,45.068,45.000,0.00,0.09,-272.71,-272.77,6,658,-2,20.4,4.9,-20.8,20.7,5.2,-19.9,5.73,1.74,-9.6,27.1
2015-03-26 01:43:00,0.0,1.93788,0.00034,405.342,0.024,0.1595,0.0018,140.001,45.000,31774.07654,1.94094,406.123,33.504,45.068,45.000,0.00,0.09,-272.71,-272.77,7,657,-2,20.4,4.8,-20.9,20.7,5.2,-19.9,5.73,1.85,-9.6,27.0
2015-03-26 01:44:00,0.0,1.93792,0.00033,405.359,0.032,0.1578,0.0014,139.996,45.000,31776.28503,1.94096,406.132,33.502,45.067,45.000,0.00,0.09,-272.72,-272.77,7,658,-2,20.4,4.8,-21.0,20.6,5.2,-19.9,5.73,1.77,-9.6,27.0
2015-03-26 01:45:00,0.0,1.93785,0.00045,405.358,0.031,0.1580,0.0019,139.998,45.000,31779.55429,1.94085,406.129,33.500,45.067,45.000,0.00,0.09,-272.71,-272.77,6,658,-2,20.4,4.8,-20.9,20.6,5.2,-19.9,5.73,1.64,-9.6,27.0
2015-03-26 01:46:00,0.0,1.93782,0.00038,405.364,0.041,0.1582,0.0015,139.998,45.000,31772.04662,1.94089,406.139,33.498,45.067,45.000,0.00,0.09,-272.71,-272.78,7,658,-2,20.4,4.8,-20.9,20.7,5.2,-19.8,5.73,1.71,-9.7,27.0
2015-03-26 01:47:00,0.0,1.93795,0.00031,405.326,0.023,0.1582,0.0018,139.998,45.000,31777.00544,1.94094,406.098,33.494,45.067,45.000,0.00,0.09,-272.71,-272.77,7,658,-2,20.4,4.8,-20.9,20.6,5.2,-19.8,5.73,1.85,-9.7,27.0